TimePDT,TemperatureF,Dew PointF,Humidity,Sea Level PressureIn,VisibilityMPH,Wind Direction,Wind SpeedMPH,Gust SpeedMPH,PrecipitationIn,Events,Conditions,WindDirDegrees,DateUTC
12:53 AM,51.1,41.0,68,30.01,7.0,Calm,Calm,-,N/A,,Clear,0,2013-10-20 07:53:00
1:53 AM,52.0,44.1,74,30.01,6.0,Calm,Calm,-,N/A,,Haze,0,2013-10-20 08:53:00
2:53 AM,50.0,43.0,77,30.01,7.0,Calm,Calm,-,N/A,,Clear,0,2013-10-20 09:53:00
3:53 AM,48.0,43.0,83,29.99,6.0,Calm,Calm,-,N/A,,Haze,0,2013-10-20 10:53:00
4:53 AM,46.0,41.0,83,29.99,5.0,Calm,Calm,-,N/A,,Haze,0,2013-10-20 11:53:00
5:53 AM,46.9,42.1,83,29.99,5.0,ESE,3.5,-,N/A,,Haze,120,2013-10-20 12:53:00
6:53 AM,46.0,42.1,86,29.99,4.0,Calm,Calm,-,N/A,,Clear,0,2013-10-20 13:53:00
7:53 AM,46.9,39.9,77,30.01,4.0,Calm,Calm,-,N/A,,Haze,0,2013-10-20 14:53:00
8:53 AM,55.9,43.0,62,30.02,4.0,Calm,Calm,-,N/A,,Haze,0,2013-10-20 15:53:00
9:53 AM,63.0,42.1,46,30.02,5.0,Calm,Calm,-,N/A,,Haze,0,2013-10-20 16:53:00
10:53 AM,70.0,41.0,35,30.01,6.0,Calm,Calm,-,N/A,,Haze,0,2013-10-20 17:53:00
11:53 AM,75.0,39.9,28,30.00,7.0,Calm,Calm,-,N/A,,Clear,0,2013-10-20 18:53:00
12:53 PM,78.1,39.0,25,29.97,9.0,Variable,5.8,-,N/A,,Clear,0,2013-10-20 19:53:00
1:53 PM,81.0,36.0,20,29.94,10.0,North,6.9,-,N/A,,Clear,350,2013-10-20 20:53:00
2:53 PM,82.0,36.0,19,29.92,9.0,WNW,6.9,-,N/A,,Clear,290,2013-10-20 21:53:00
3:53 PM,84.0,33.1,16,29.91,10.0,North,4.6,-,N/A,,Clear,360,2013-10-20 22:53:00
4:53 PM,84.0,36.0,18,29.90,10.0,Calm,Calm,-,N/A,,Clear,0,2013-10-20 23:53:00
5:53 PM,80.1,37.9,22,29.89,10.0,Calm,Calm,-,N/A,,Clear,0,2013-10-21 00:53:00
6:53 PM,71.1,39.9,32,29.90,10.0,Calm,Calm,-,N/A,,Clear,0,2013-10-21 01:53:00
7:53 PM,64.0,42.1,45,29.91,10.0,Calm,Calm,-,N/A,,Clear,0,2013-10-21 02:53:00
8:53 PM,63.0,43.0,48,29.92,9.0,Calm,Calm,-,N/A,,Clear,0,2013-10-21 03:53:00
9:53 PM,61.0,43.0,52,29.93,8.0,Calm,Calm,-,N/A,,Clear,0,2013-10-21 04:53:00
10:53 PM,54.0,39.9,59,29.94,8.0,South,3.5,-,N/A,,Clear,190,2013-10-21 05:53:00
11:53 PM,53.1,42.1,66,29.94,7.0,Calm,Calm,-,N/A,,Clear,0,2013-10-21 06:53:00